Date,TemperatureHighF,TemperatureAvgF,TemperatureLowF,DewpointHighF,DewpointAvgF,DewpointLowF,HumidityHigh,HumidityAvg,HumidityLow,PressureMaxIn,PressureMinIn,WindSpeedMaxMPH,WindSpeedAvgMPH,GustSpeedMaxMPH,PrecipitationSumIn
2013-6-1,78.8,70.6,61.2,70.0,66.8,60.9,100,89,68,30.08,30.00,14,6,21,0.09
2013-6-2,61.2,55.4,46.4,60.9,51.4,46.1,100,87,64,30.38,30.04,9,5,11,0.00
2013-6-3,78.1,59.4,42.6,55.6,46.5,40.4,100,68,34,30.45,30.37,7,3,10,0.00
2013-6-4,74.8,60.5,50.0,52.1,47.0,42.3,82,64,43,30.53,30.43,9,3,14,0.00
2013-6-5,67.5,57.3,51.4,55.6,51.6,47.5,100,82,60,30.50,30.32,8,3,14,0.00
2013-6-6,62.4,55.8,51.6,56.5,53.4,49.3,100,92,77,30.32,30.25,5,2,8,0.00
2013-6-7,76.3,62.3,49.6,56.1,48.8,41.5,100,67,34,30.33,30.27,8,3,12,0.00
2013-6-8,78.8,62.5,46.6,57.1,50.8,45.4,100,70,38,30.38,30.27,5,2,7,0.00
2013-6-9,80.6,67.4,53.1,65.7,59.1,51.7,100,77,55,30.38,30.19,13,4,21,0.07
2013-6-10,85.6,70.0,60.4,70.0,65.5,60.2,100,88,59,30.22,30.12,5,2,7,0.00
2013-6-11,88.7,74.7,59.9,70.6,66.1,59.6,99,78,53,30.27,30.16,7,2,11,0.00
2013-6-12,79.5,70.3,62.4,70.5,66.9,62.1,100,90,71,30.27,29.99,14,4,18,0.02
2013-6-13,78.4,66.7,55.4,63.9,59.4,53.3,100,80,58,30.43,30.04,10,4,13,0.00
2013-6-14,82.9,66.2,54.0,62.0,55.7,50.3,100,72,48,30.49,30.36,7,3,11,0.00
2013-6-15,81.9,68.1,54.7,74.6,64.4,51.3,100,89,74,30.42,30.17,9,4,13,0.02
2013-6-16,89.8,76.1,63.1,71.5,64.0,57.4,99,72,37,30.27,30.19,8,3,14,0.00
2013-6-17,91.6,71.8,56.8,71.9,61.3,55.9,97,74,40,30.32,30.20,8,2,12,0.01
2013-6-18,74.3,62.9,54.1,61.3,53.8,43.5,100,75,48,30.43,30.30,8,4,12,0.00
2013-6-19,78.8,64.4,48.9,55.2,49.4,42.3,91,62,40,30.49,30.42,8,3,15,0.00
2013-6-20,89.1,72.7,57.4,66.9,56.4,40.4,72,58,43,30.49,30.41,9,5,14,0.00
2013-6-21,77.5,70.6,64.8,72.2,67.4,58.7,100,90,72,30.47,30.24,19,5,26,0.05
2013-6-22,82.8,72.1,65.8,76.8,70.6,65.5,100,95,81,30.47,30.29,16,4,22,0.01
2013-6-23,89.4,76.2,64.4,78.6,71.5,64.1,100,87,68,30.37,30.22,11,5,16,0.00
2013-6-24,84.7,73.9,68.2,74.5,70.6,67.9,100,91,69,30.37,30.18,8,3,12,0.00
2013-6-25,89.2,72.5,65.1,77.5,70.5,64.8,100,94,68,30.29,30.14,10,3,15,0.02
2013-6-26,87.1,72.6,67.6,75.1,70.2,67.3,100,93,65,30.17,30.05,12,3,16,0.01
2013-6-27,90.7,75.9,66.4,77.9,71.6,66.1,100,88,58,30.12,30.03,8,2,11,0.04
2013-6-28,80.6,71.5,63.7,68.3,66.1,63.4,100,85,61,30.06,29.94,8,3,16,0.02
2013-6-29,76.6,67.1,63.3,66.3,62.6,59.0,100,87,59,30.15,29.94,12,5,17,0.02
2013-6-30,81.5,69.4,60.1,64.0,56.4,47.8,91,67,39,30.36,30.14,9,5,13,0.00